| time (UTC) | temp F | wind direction | speed MPH | gust MPH | rain 1hr in | rain 24hr in | rain mn in | humidity % | barometer mb |
| 20260906123058 | 71 | 0 | 0.0 | 0.0 | 0.00 | 0.03 | 0.03 | 95 | 1016.1 |
| 20260906122528 | 71 | 0 | 0.0 | 0.0 | 0.00 | 0.03 | 0.03 | 95 | 1016.1 |
| 20260906122030 | 71 | 0 | 0.0 | 0.0 | 0.00 | 0.03 | 0.03 | 96 | 1016.1 |
| 20260906121555 | 71 | 0 | 0.0 | 1.0 | 0.00 | 0.03 | 0.03 | 96 | 1016.0 |
| 20260906121024 | 71 | 0 | 0.0 | 1.0 | 0.00 | 0.03 | 0.03 | 96 | 1016.0 |
| 20260906120525 | 71 | 0 | 0.0 | 1.0 | 0.00 | 0.03 | 0.03 | 96 | 1015.8 |
| 20260906120045 | 70 | 0 | 0.0 | 1.0 | 0.00 | 0.03 | 0.03 | 96 | 1015.7 |
| 20260906115532 | 70 | 0 | 0.0 | 1.0 | 0.00 | 0.03 | 0.03 | 96 | 1015.8 |
| 20260906115027 | 70 | 244 | 0.0 | 0.0 | 0.00 | 0.03 | 0.03 | 96 | 1015.6 |
| 20260906114559 | 70 | 0 | 0.0 | 1.0 | 0.00 | 0.03 | 0.03 | 96 | 1015.6 |
| 20260906114026 | 70 | 0 | 0.0 | 2.0 | 0.00 | 0.03 | 0.03 | 95 | 1015.6 |
| 20260906113529 | 70 | 244 | 0.0 | 2.0 | 0.00 | 0.03 | 0.03 | 95 | 1015.6 |
| 20260906113101 | 70 | 244 | 0.0 | 0.0 | 0.00 | 0.03 | 0.03 | 94 | 1015.6 |
| 20260906112526 | 70 | 0 | 0.0 | 2.0 | 0.00 | 0.03 | 0.03 | 94 | 1015.5 |
| 20260906112024 | 70 | 0 | 0.0 | 2.0 | 0.00 | 0.03 | 0.03 | 94 | 1015.5 |
| 20260906111545 | 70 | 0 | 1.0 | 2.0 | 0.00 | 0.03 | 0.03 | 94 | 1015.5 |
| 20260906111027 | 70 | 244 | 1.0 | 2.0 | 0.00 | 0.03 | 0.03 | 94 | 1015.4 |
| 20260906110529 | 70 | 244 | 0.0 | 2.0 | 0.00 | 0.03 | 0.03 | 94 | 1015.4 |
| 20260906110044 | 70 | 0 | 0.0 | 2.0 | 0.00 | 0.03 | 0.03 | 94 | 1015.4 |
| 20260906105526 | 70 | 0 | 0.0 | 2.0 | 0.00 | 0.03 | 0.03 | 94 | 1015.3 |
| 20260906105028 | 70 | 0 | 0.0 | 2.0 | 0.00 | 0.03 | 0.03 | 94 | 1015.3 |
| 20260906104550 | 70 | 244 | 0.0 | 2.0 | 0.00 | 0.03 | 0.03 | 94 | 1015.3 |
| 20260906104028 | 70 | 0 | 0.0 | 2.0 | 0.00 | 0.03 | 0.03 | 94 | 1015.3 |
| 20260906103525 | 70 | 0 | 0.0 | 2.0 | 0.00 | 0.03 | 0.03 | 94 | 1015.3 |
| 20260906103047 | 70 | 0 | 0.0 | 2.0 | 0.00 | 0.03 | 0.03 | 94 | 1015.2 |
| 20260906102525 | 70 | 244 | 1.0 | 2.0 | 0.00 | 0.03 | 0.03 | 94 | 1015.3 |
| 20260906102024 | 70 | 0 | 0.0 | 2.0 | 0.00 | 0.03 | 0.03 | 93 | 1015.3 |
| 20260906101602 | 70 | 0 | 0.0 | 2.0 | 0.00 | 0.03 | 0.03 | 93 | 1015.3 |
| 20260906101031 | 70 | 244 | 0.0 | 1.0 | 0.00 | 0.03 | 0.03 | 93 | 1015.2 |
| 20260906100525 | 71 | 0 | 0.0 | 1.0 | 0.00 | 0.03 | 0.03 | 93 | 1015.3 |
| 20260906100043 | 71 | 0 | 0.0 | 2.0 | 0.00 | 0.03 | 0.03 | 93 | 1015.2 |
| 20260906095528 | 71 | 0 | 0.0 | 2.0 | 0.00 | 0.03 | 0.03 | 92 | 1015.2 |
| 20260906095028 | 71 | 0 | 0.0 | 2.0 | 0.00 | 0.03 | 0.03 | 92 | 1015.4 |
| 20260906094552 | 71 | 0 | 0.0 | 1.0 | 0.00 | 0.03 | 0.03 | 92 | 1015.4 |
| 20260906094031 | 71 | 340 | 0.0 | 1.0 | 0.00 | 0.03 | 0.03 | 92 | 1015.5 |
| 20260906093529 | 71 | 0 | 0.0 | 3.0 | 0.00 | 0.03 | 0.03 | 91 | 1015.5 |
| 20260906093048 | 71 | 0 | 0.0 | 3.0 | 0.00 | 0.03 | 0.03 | 91 | 1015.5 |
| 20260906092529 | 71 | 0 | 1.0 | 5.0 | 0.00 | 0.03 | 0.03 | 91 | 1015.5 |
| 20260906092029 | 71 | 355 | 1.0 | 7.0 | 0.00 | 0.03 | 0.03 | 91 | 1015.6 |
| 20260906091548 | 71 | 0 | 2.0 | 7.0 | 0.00 | 0.03 | 0.03 | 92 | 1015.6 |
| 20260906091031 | 71 | 0 | 1.0 | 6.0 | 0.00 | 0.03 | 0.03 | 92 | 1015.7 |
| 20260906090528 | 71 | 217 | 1.0 | 6.0 | 0.00 | 0.03 | 0.03 | 92 | 1015.6 |
| 20260906090056 | 71 | 204 | 1.0 | 5.0 | 0.00 | 0.03 | 0.03 | 92 | 1015.5 |
| 20260906085528 | 70 | 207 | 3.0 | 5.0 | 0.00 | 0.03 | 0.03 | 92 | 1015.6 |
| 20260906085028 | 70 | 216 | 1.0 | 5.0 | 0.00 | 0.03 | 0.03 | 92 | 1015.5 |
| 20260906084550 | 70 | 167 | 0.0 | 3.0 | 0.00 | 0.03 | 0.03 | 92 | 1015.5 |
| 20260906084030 | 70 | 0 | 0.0 | 2.0 | 0.00 | 0.03 | 0.03 | 92 | 1015.4 |
| 20260906083528 | 71 | 0 | 0.0 | 2.0 | 0.00 | 0.03 | 0.03 | 91 | 1015.5 |
| 20260906083047 | 71 | 0 | 0.0 | 2.0 | 0.00 | 0.03 | 0.03 | 91 | 1015.4 |
| 20260906082525 | 71 | 241 | 0.0 | 2.0 | 0.00 | 0.03 | 0.03 | 91 | 1015.4 |
| 20260906082029 | 71 | 241 | 0.0 | 6.0 | 0.00 | 0.03 | 0.03 | 91 | 1015.5 |
| 20260906081549 | 71 | 240 | 0.0 | 10.0 | 0.00 | 0.03 | 0.03 | 91 | 1015.6 |
| 20260906081028 | 71 | 252 | 2.0 | 10.0 | 0.00 | 0.03 | 0.03 | 90 | 1015.7 |
| 20260906080530 | 71 | 335 | 4.0 | 10.0 | 0.00 | 0.03 | 0.03 | 90 | 1015.8 |
| 20260906080046 | 71 | 298 | 2.0 | 4.0 | 0.00 | 0.03 | 0.03 | 90 | 1015.6 |
| 20260906075526 | 71 | 313 | 1.0 | 9.0 | 0.00 | 0.03 | 0.03 | 90 | 1015.3 |
| 20260906075026 | 71 | 0 | 0.0 | 9.0 | 0.00 | 0.03 | 0.03 | 91 | 1015.2 |
| 20260906074557 | 71 | 57 | 3.0 | 9.0 | 0.00 | 0.03 | 0.03 | 91 | 1015.2 |
| 20260906074028 | 71 | 62 | 1.0 | 5.0 | 0.00 | 0.03 | 0.03 | 91 | 1015.3 |
| 20260906073531 | 71 | 0 | 1.0 | 5.0 | 0.00 | 0.03 | 0.03 | 91 | 1015.5 |
| 20260906073048 | 71 | 0 | 1.0 | 6.0 | 0.00 | 0.03 | 0.03 | 91 | 1015.5 |
| 20260906072526 | 71 | 0 | 2.0 | 8.0 | 0.00 | 0.03 | 0.03 | 91 | 1015.5 |
| 20260906072029 | 71 | 187 | 1.0 | 8.0 | 0.00 | 0.03 | 0.03 | 91 | 1015.6 |
| 20260906071548 | 71 | 110 | 3.0 | 8.0 | 0.00 | 0.03 | 0.03 | 91 | 1015.6 |
| 20260906071029 | 71 | 177 | 1.0 | 7.0 | 0.00 | 0.03 | 0.03 | 91 | 1015.8 |
| 20260906070532 | 71 | 135 | 1.0 | 7.0 | 0.00 | 0.03 | 0.03 | 91 | 1015.9 |
| 20260906070047 | 71 | 121 | 1.0 | 7.0 | 0.00 | 0.03 | 0.03 | 91 | 1015.9 |
| 20260906065529 | 71 | 0 | 0.0 | 3.0 | 0.00 | 0.03 | 0.03 | 90 | 1015.9 |
| 20260906065029 | 71 | 88 | 1.0 | 6.0 | 0.00 | 0.03 | 0.03 | 90 | 1015.9 |
| 20260906064545 | 71 | 283 | 1.0 | 6.0 | 0.00 | 0.03 | 0.03 | 90 | 1015.9 |
| 20260906064031 | 71 | 205 | 2.0 | 10.0 | 0.01 | 0.03 | 0.03 | 90 | 1015.9 |
| 20260906063528 | 71 | 94 | 2.0 | 10.0 | 0.01 | 0.03 | 0.03 | 90 | 1015.9 |
| 20260906063051 | 71 | 208 | 4.0 | 10.0 | 0.03 | 0.03 | 0.03 | 91 | 1015.8 |
| 20260906062529 | 71 | 140 | 0.0 | 7.0 | 0.03 | 0.03 | 0.03 | 92 | 1016.0 |
| 20260906062026 | 71 | 140 | 1.0 | 7.0 | 0.03 | 0.03 | 0.03 | 91 | 1016.0 |
| 20260906061550 | 72 | 146 | 1.0 | 6.0 | 0.03 | 0.03 | 0.03 | 91 | 1016.0 |
| 20260906061027 | 72 | 133 | 1.0 | 7.0 | 0.03 | 0.03 | 0.03 | 91 | 1016.3 |
| 20260906060529 | 72 | 137 | 1.0 | 9.0 | 0.03 | 0.03 | 0.03 | 91 | 1016.2 |
| 20260906060108 | 72 | 116 | 1.0 | 9.0 | 0.03 | 0.03 | 0.03 | 91 | 1016.0 |
| 20260906055528 | 72 | 73 | 2.0 | 13.0 | 0.03 | 0.03 | 0.03 | 90 | 1016.0 |
| 20260906055028 | 72 | 148 | 4.0 | 13.0 | 0.03 | 0.03 | 0.03 | 90 | 1016.0 |
| 20260906054554 | 72 | 173 | 4.0 | 11.0 | 0.03 | 0.03 | 0.03 | 90 | 1016.1 |
| 20260906054026 | 72 | 162 | 2.0 | 9.0 | 0.02 | 0.02 | 0.02 | 88 | 1016.4 |
| 20260906053530 | 73 | 139 | 3.0 | 12.0 | 0.01 | 0.01 | 0.01 | 87 | 1016.5 |
| 20260906053047 | 74 | 107 | 3.0 | 12.0 | 0.00 | 0.00 | 0.00 | 86 | 1016.4 |
| 20260906052536 | 74 | 96 | 4.0 | 10.0 | 0.00 | 0.00 | 0.00 | 86 | 1016.6 |
| 20260906052026 | 75 | 69 | 3.0 | 11.0 | 0.00 | 0.00 | 0.00 | 85 | 1017.3 |
| 20260906051546 | 76 | 58 | 2.0 | 11.0 | 0.00 | 0.00 | 0.00 | 84 | 1016.8 |
| 20260906051028 | 77 | 63 | 3.0 | 9.0 | 0.00 | 0.00 | 0.00 | 82 | 1016.7 |
| 20260906050527 | 78 | 41 | 3.0 | 5.0 | 0.00 | 0.00 | 0.00 | 81 | 1017.2 |
| 20260906050110 | 78 | 72 | 1.0 | 4.0 | 0.00 | 0.00 | 0.00 | 79 | 1016.3 |
| 20260906045531 | 78 | 90 | 1.0 | 4.0 | 0.00 | 0.00 | 0.00 | 79 | 1016.0 |
| 20260906045029 | 78 | 92 | 1.0 | 2.0 | 0.00 | 0.00 | 0.00 | 79 | 1016.0 |
| 20260906044551 | 78 | 54 | 1.0 | 2.0 | 0.00 | 0.00 | 0.00 | 79 | 1016.1 |
| 20260906044030 | 78 | 54 | 0.0 | 4.0 | 0.00 | 0.00 | 0.00 | 79 | 1016.0 |
| 20260906043526 | 78 | 0 | 1.0 | 4.0 | 0.00 | 0.00 | 0.00 | 80 | 1016.0 |
| 20260906043047 | 78 | 155 | 1.0 | 2.0 | 0.00 | 0.00 | 0.00 | 80 | 1015.9 |
| 20260906042525 | 78 | 155 | 0.0 | 2.0 | 0.00 | 0.00 | 0.00 | 78 | 1015.5 |
| 20260906042026 | 78 | 0 | 0.0 | 2.0 | 0.00 | 0.00 | 0.00 | 78 | 1015.5 |
| 20260906041547 | 78 | 0 | 0.0 | 5.0 | 0.00 | 0.00 | 0.00 | 79 | 1015.5 |
| 20260906041029 | 78 | 155 | 0.0 | 5.0 | 0.00 | 0.00 | 0.00 | 79 | 1015.6 |
| 20260906040528 | 77 | 220 | 0.0 | 2.0 | 0.00 | 0.00 | 0.00 | 80 | 1015.6 |
| 20260906040047 | 77 | 0 | 0.0 | 2.0 | 0.00 | 0.00 | 0.00 | 80 | 1015.6 |
| 20260906035533 | 77 | 137 | 0.0 | 2.0 | 0.00 | 0.00 | 0.00 | 79 | 1015.6 |
| 20260906035029 | 77 | 0 | 0.0 | 1.0 | 0.00 | 0.00 | 0.00 | 81 | 1015.7 |
| 20260906034558 | 77 | 0 | 0.0 | 2.0 | 0.00 | 0.00 | 0.00 | 81 | 1015.8 |
| 20260906034028 | 77 | 0 | 0.0 | 4.0 | 0.00 | 0.00 | 0.00 | 80 | 1015.8 |
| 20260906033527 | 77 | 0 | 0.0 | 5.0 | 0.00 | 0.00 | 0.00 | 80 | 1015.7 |
| 20260906033047 | 77 | 202 | 0.0 | 5.0 | 0.00 | 0.00 | 0.00 | 79 | 1015.7 |
| 20260906032527 | 77 | 209 | 0.0 | 1.0 | 0.00 | 0.00 | 0.00 | 80 | 1015.6 |
| 20260906032031 | 77 | 0 | 0.0 | 2.0 | 0.00 | 0.00 | 0.00 | 79 | 1015.4 |
| 20260906031608 | 77 | 0 | 0.0 | 2.0 | 0.00 | 0.00 | 0.00 | 79 | 1015.4 |
| 20260906031029 | 78 | 209 | 0.0 | 1.0 | 0.00 | 0.00 | 0.00 | 78 | 1015.5 |
| 20260906030528 | 78 | 0 | 0.0 | 0.0 | 0.00 | 0.00 | 0.00 | 78 | 1015.5 |
| 20260906030045 | 78 | 0 | 0.0 | 0.0 | 0.00 | 0.00 | 0.00 | 77 | 1015.5 |
| 20260906025531 | 79 | 0 | 0.0 | 0.0 | 0.00 | 0.00 | 0.00 | 77 | 1015.4 |
| 20260906025031 | 79 | 0 | 0.0 | 0.0 | 0.00 | 0.00 | 0.00 | 76 | 1015.3 |
| 20260906024555 | 79 | 0 | 0.0 | 0.0 | 0.00 | 0.00 | 0.00 | 76 | 1015.2 |
| 20260906024026 | 79 | 0 | 0.0 | 0.0 | 0.00 | 0.00 | 0.00 | 76 | 1015.2 |
| 20260906023526 | 79 | 0 | 0.0 | 0.0 | 0.00 | 0.00 | 0.00 | 75 | 1015.1 |
| 20260906023105 | 80 | 0 | 0.0 | 0.0 | 0.00 | 0.00 | 0.00 | 75 | 1015.1 |
| 20260906022528 | 80 | 0 | 0.0 | 0.0 | 0.00 | 0.00 | 0.00 | 75 | 1015.0 |
| 20260906022029 | 80 | 0 | 0.0 | 1.0 | 0.00 | 0.00 | 0.00 | 74 | 1014.9 |
| 20260906021546 | 80 | 0 | 0.0 | 1.0 | 0.00 | 0.00 | 0.00 | 73 | 1014.8 |
| 20260906021028 | 81 | 0 | 0.0 | 2.0 | 0.00 | 0.00 | 0.00 | 72 | 1014.6 |
| 20260906020531 | 82 | 0 | 0.0 | 2.0 | 0.00 | 0.00 | 0.00 | 71 | 1014.5 |
| 20260906020058 | 82 | 209 | 0.0 | 3.0 | 0.00 | 0.00 | 0.00 | 70 | 1014.4 |
| 20260906015528 | 82 | 0 | 0.0 | 3.0 | 0.00 | 0.00 | 0.00 | 69 | 1014.3 |
| 20260906015028 | 83 | 0 | 1.0 | 3.0 | 0.00 | 0.00 | 0.00 | 68 | 1014.3 |
| 20260906014548 | 83 | 209 | 0.0 | 2.0 | 0.00 | 0.00 | 0.00 | 68 | 1014.2 |
| 20260906014029 | 84 | 0 | 0.0 | 4.0 | 0.00 | 0.00 | 0.00 | 67 | 1014.2 |
| 20260906013534 | 84 | 0 | 0.0 | 4.0 | 0.00 | 0.00 | 0.00 | 66 | 1014.2 |
| 20260906013047 | 84 | 0 | 1.0 | 4.0 | 0.00 | 0.00 | 0.00 | 66 | 1014.2 |
| 20260906012529 | 84 | 212 | 1.0 | 4.0 | 0.00 | 0.00 | 0.00 | 65 | 1014.2 |
| 20260906012029 | 85 | 0 | 0.0 | 2.0 | 0.00 | 0.00 | 0.00 | 65 | 1014.5 |
| 20260906011605 | 85 | 0 | 0.0 | 7.0 | 0.00 | 0.00 | 0.00 | 65 | 1014.5 |
| 20260906011027 | 85 | 187 | 0.0 | 7.0 | 0.00 | 0.00 | 0.00 | 64 | 1014.3 |
| 20260906010529 | 85 | 126 | 1.0 | 5.0 | 0.00 | 0.00 | 0.00 | 64 | 1014.5 |
| 20260906010055 | 85 | 65 | 3.0 | 5.0 | 0.00 | 0.00 | 0.00 | 63 | 1015.0 |
| 20260906005527 | 86 | 0 | 0.0 | 2.0 | 0.00 | 0.00 | 0.00 | 63 | 1014.6 |
| 20260906005029 | 86 | 0 | 0.0 | 4.0 | 0.00 | 0.00 | 0.00 | 62 | 1014.8 |
| 20260906004559 | 86 | 0 | 0.0 | 4.0 | 0.00 | 0.00 | 0.00 | 61 | 1014.5 |
| 20260906004031 | 86 | 81 | 0.0 | 4.0 | 0.00 | 0.00 | 0.00 | 61 | 1014.4 |
| 20260906003529 | 86 | 186 | 1.0 | 7.0 | 0.00 | 0.00 | 0.00 | 62 | 1014.2 |
| 20260906003056 | 87 | 212 | 2.0 | 7.0 | 0.00 | 0.00 | 0.00 | 62 | 1014.1 |
| 20260906002529 | 87 | 124 | 1.0 | 3.0 | 0.00 | 0.00 | 0.00 | 63 | 1014.1 |
| 20260906002027 | 88 | 0 | 0.0 | 4.0 | 0.00 | 0.00 | 0.00 | 62 | 1014.1 |
| 20260906001554 | 88 | 0 | 0.0 | 4.0 | 0.00 | 0.00 | 0.00 | 60 | 1014.1 |
| 20260906001028 | 89 | 98 | 0.0 | 3.0 | 0.00 | 0.00 | 0.00 | 60 | 1014.2 |
| 20260906000526 | 89 | 97 | 0.0 | 2.0 | 0.00 | 0.00 | 0.00 | 58 | 1014.1 |
| 20260906000059 | 89 | 0 | 0.0 | 0.0 | 0.00 | 0.00 | 0.00 | 58 | 1014.1 |
| 20260905235530 | 90 | 0 | 0.0 | 1.0 | 0.00 | 0.00 | 0.00 | 57 | 1014.1 |
| 20260905235028 | 90 | 0 | 0.0 | 2.0 | 0.00 | 0.00 | 0.00 | 56 | 1014.0 |
| 20260905234549 | 91 | 0 | 0.0 | 2.0 | 0.00 | 0.00 | 0.00 | 56 | 1014.0 |
| 20260905234027 | 92 | 275 | 0.0 | 2.0 | 0.00 | 0.00 | 0.00 | 55 | 1014.0 |
| 20260905233530 | 92 | 275 | 0.0 | 2.0 | 0.00 | 0.00 | 0.00 | 54 | 1014.1 |
| 20260905233050 | 93 | 0 | 0.0 | 3.0 | 0.00 | 0.00 | 0.00 | 53 | 1014.1 |
| 20260905232529 | 94 | 274 | 0.0 | 3.0 | 0.00 | 0.00 | 0.00 | 53 | 1014.0 |
| 20260905232034 | 94 | 0 | 1.0 | 3.0 | 0.00 | 0.00 | 0.00 | 51 | 1013.9 |
| 20260905231603 | 94 | 0 | 0.0 | 1.0 | 0.00 | 0.00 | 0.00 | 51 | 1013.9 |
| 20260905231031 | 95 | 0 | 0.0 | 3.0 | 0.00 | 0.00 | 0.00 | 51 | 1013.9 |
| 20260905230526 | 95 | 0 | 0.0 | 3.0 | 0.00 | 0.00 | 0.00 | 50 | 1013.9 |
| 20260905230048 | 96 | 0 | 0.0 | 3.0 | 0.00 | 0.00 | 0.00 | 50 | 1013.9 |
| 20260905225526 | 96 | 0 | 0.0 | 4.0 | 0.00 | 0.00 | 0.00 | 49 | 1013.9 |
| 20260905225028 | 96 | 0 | 1.0 | 4.0 | 0.00 | 0.00 | 0.00 | 48 | 1013.9 |
| 20260905224555 | 97 | 287 | 0.0 | 4.0 | 0.00 | 0.00 | 0.00 | 48 | 1013.9 |
| 20260905224034 | 97 | 0 | 0.0 | 5.0 | 0.00 | 0.00 | 0.00 | 48 | 1013.9 |
| 20260905223529 | 97 | 0 | 0.0 | 5.0 | 0.00 | 0.00 | 0.00 | 48 | 1014.0 |
| 20260905223056 | 97 | 0 | 1.0 | 5.0 | 0.00 | 0.00 | 0.00 | 49 | 1014.0 |
| 20260905222529 | 97 | 0 | 0.0 | 5.0 | 0.00 | 0.00 | 0.00 | 50 | 1013.9 |
| 20260905222032 | 96 | 344 | 1.0 | 4.0 | 0.00 | 0.00 | 0.00 | 49 | 1014.0 |
| 20260905221601 | 97 | 261 | 1.0 | 5.0 | 0.00 | 0.00 | 0.00 | 49 | 1014.0 |
| 20260905221026 | 97 | 257 | 2.0 | 6.0 | 0.00 | 0.00 | 0.00 | 48 | 1013.9 |
| 20260905220526 | 97 | 34 | 2.0 | 6.0 | 0.00 | 0.00 | 0.00 | 49 | 1013.9 |
| 20260905220049 | 97 | 282 | 1.0 | 8.0 | 0.00 | 0.00 | 0.00 | 49 | 1014.0 |
| 20260905215532 | 97 | 296 | 2.0 | 8.0 | 0.00 | 0.00 | 0.00 | 48 | 1014.0 |
| 20260905215028 | 98 | 258 | 2.0 | 6.0 | 0.00 | 0.00 | 0.00 | 48 | 1013.9 |
| 20260905214602 | 98 | 295 | 1.0 | 6.0 | 0.00 | 0.00 | 0.00 | 49 | 1014.0 |
| 20260905214029 | 97 | 0 | 1.0 | 6.0 | 0.00 | 0.00 | 0.00 | 50 | 1014.0 |
| 20260905213529 | 97 | 217 | 2.0 | 6.0 | 0.00 | 0.00 | 0.00 | 49 | 1014.1 |
| 20260905213054 | 97 | 219 | 3.0 | 8.0 | 0.00 | 0.00 | 0.00 | 48 | 1014.0 |
| 20260905212529 | 97 | 299 | 2.0 | 8.0 | 0.00 | 0.00 | 0.00 | 49 | 1014.1 |
| 20260905212028 | 98 | 285 | 2.0 | 7.0 | 0.00 | 0.00 | 0.00 | 49 | 1014.1 |
| 20260905211549 | 97 | 269 | 1.0 | 7.0 | 0.00 | 0.00 | 0.00 | 48 | 1014.2 |
| 20260905211028 | 98 | 223 | 2.0 | 6.0 | 0.00 | 0.00 | 0.00 | 48 | 1014.1 |
| 20260905210527 | 98 | 5 | 2.0 | 6.0 | 0.00 | 0.00 | 0.00 | 47 | 1014.1 |
| 20260905210050 | 98 | 90 | 1.0 | 5.0 | 0.00 | 0.00 | 0.00 | 47 | 1014.1 |
| 20260905205536 | 98 | 281 | 1.0 | 5.0 | 0.00 | 0.00 | 0.00 | 48 | 1014.1 |
| 20260905205052 | 98 | 302 | 1.0 | 8.0 | 0.00 | 0.00 | 0.00 | 48 | 1014.2 |
| 20260905204556 | 98 | 296 | 2.0 | 8.0 | 0.00 | 0.00 | 0.00 | 48 | 1014.2 |
| 20260905204031 | 98 | 301 | 1.0 | 8.0 | 0.00 | 0.00 | 0.00 | 48 | 1014.3 |
| 20260905203528 | 98 | 340 | 2.0 | 8.0 | 0.00 | 0.00 | 0.00 | 47 | 1014.4 |
| 20260905203051 | 99 | 43 | 1.0 | 4.0 | 0.00 | 0.00 | 0.00 | 47 | 1014.5 |
| 20260905202526 | 98 | 153 | 0.0 | 5.0 | 0.00 | 0.00 | 0.00 | 46 | 1014.5 |
| 20260905202030 | 98 | 340 | 1.0 | 5.0 | 0.00 | 0.00 | 0.00 | 46 | 1014.8 |
| 20260905201557 | 98 | 93 | 3.0 | 6.0 | 0.00 | 0.00 | 0.00 | 47 | 1014.9 |
| 20260905201028 | 98 | 51 | 2.0 | 8.0 | 0.00 | 0.00 | 0.00 | 46 | 1015.0 |
| 20260905200530 | 98 | 59 | 2.0 | 8.0 | 0.00 | 0.00 | 0.00 | 47 | 1015.0 |
| 20260905200127 | 98 | 253 | 2.0 | 8.0 | 0.00 | 0.00 | 0.00 | 46 | 1015.2 |
| 20260905195528 | 98 | 277 | 1.0 | 10.0 | 0.00 | 0.00 | 0.00 | 47 | 1015.2 |
| 20260905195027 | 98 | 55 | 2.0 | 10.0 | 0.00 | 0.00 | 0.00 | 48 | 1015.3 |
| 20260905194552 | 98 | 63 | 1.0 | 9.0 | 0.00 | 0.00 | 0.00 | 47 | 1015.3 |
| 20260905194027 | 98 | 148 | 1.0 | 5.0 | 0.00 | 0.00 | 0.00 | 45 | 1015.3 |
| 20260905193530 | 97 | 61 | 1.0 | 6.0 | 0.00 | 0.00 | 0.00 | 47 | 1015.5 |
| 20260905193047 | 97 | 0 | 2.0 | 6.0 | 0.00 | 0.00 | 0.00 | 47 | 1015.5 |
| 20260905192532 | 97 | 122 | 3.0 | 7.0 | 0.00 | 0.00 | 0.00 | 49 | 1015.5 |
| 20260905192028 | 97 | 53 | 1.0 | 9.0 | 0.00 | 0.00 | 0.00 | 50 | 1015.6 |
| 20260905191558 | 97 | 0 | 1.0 | 9.0 | 0.00 | 0.00 | 0.00 | 49 | 1015.7 |
| 20260905191029 | 97 | 331 | 2.0 | 6.0 | 0.00 | 0.00 | 0.00 | 49 | 1015.7 |
| 20260905190529 | 97 | 0 | 1.0 | 6.0 | 0.00 | 0.00 | 0.00 | 49 | 1015.7 |
| 20260905190100 | 96 | 41 | 2.0 | 8.0 | 0.00 | 0.00 | 0.00 | 50 | 1015.8 |
| 20260905185526 | 96 | 278 | 3.0 | 8.0 | 0.00 | 0.00 | 0.00 | 51 | 1015.8 |
| 20260905185031 | 95 | 309 | 2.0 | 7.0 | 0.00 | 0.00 | 0.00 | 51 | 1016.0 |
| 20260905184600 | 95 | 262 | 1.0 | 6.0 | 0.00 | 0.00 | 0.00 | 54 | 1016.0 |
| 20260905184028 | 95 | 5 | 1.0 | 4.0 | 0.00 | 0.00 | 0.00 | 55 | 1016.1 |
| 20260905183528 | 94 | 279 | 1.0 | 5.0 | 0.00 | 0.00 | 0.00 | 54 | 1016.1 |
| 20260905183048 | 95 | 330 | 2.0 | 5.0 | 0.00 | 0.00 | 0.00 | 53 | 1016.3 |
| 20260905182528 | 95 | 9 | 2.0 | 7.0 | 0.00 | 0.00 | 0.00 | 53 | 1016.4 |
| 20260905182029 | 96 | 355 | 1.0 | 7.0 | 0.00 | 0.00 | 0.00 | 53 | 1016.5 |
| 20260905181557 | 96 | 221 | 2.0 | 7.0 | 0.00 | 0.00 | 0.00 | 51 | 1016.5 |
| 20260905181029 | 96 | 36 | 1.0 | 5.0 | 0.00 | 0.00 | 0.00 | 51 | 1016.6 |
| 20260905180529 | 96 | 109 | 0.0 | 8.0 | 0.00 | 0.00 | 0.00 | 52 | 1016.6 |
| 20260905180112 | 96 | 314 | 3.0 | 8.0 | 0.00 | 0.00 | 0.00 | 52 | 1016.7 |
| 20260905175529 | 96 | 251 | 1.0 | 5.0 | 0.00 | 0.00 | 0.00 | 50 | 1016.7 |
| 20260905175029 | 96 | 329 | 1.0 | 4.0 | 0.00 | 0.00 | 0.00 | 53 | 1016.7 |
| 20260905174550 | 96 | 0 | 1.0 | 5.0 | 0.00 | 0.00 | 0.00 | 53 | 1016.8 |
| 20260905174029 | 96 | 42 | 1.0 | 5.0 | 0.00 | 0.00 | 0.00 | 53 | 1016.8 |
| 20260905173528 | 96 | 19 | 2.0 | 4.0 | 0.00 | 0.00 | 0.00 | 54 | 1016.9 |
| 20260905173114 | 95 | 46 | 1.0 | 4.0 | 0.00 | 0.00 | 0.00 | 54 | 1016.8 |
| 20260905172528 | 95 | 67 | 1.0 | 4.0 | 0.00 | 0.00 | 0.00 | 54 | 1017.0 |
| 20260905172030 | 95 | 0 | 0.0 | 4.0 | 0.00 | 0.00 | 0.00 | 55 | 1016.8 |
| 20260905171558 | 94 | 5 | 2.0 | 5.0 | 0.00 | 0.00 | 0.00 | 55 | 1016.9 |
| 20260905171028 | 94 | 355 | 2.0 | 5.0 | 0.00 | 0.00 | 0.00 | 56 | 1017.0 |
| 20260905170529 | 94 | 281 | 2.0 | 5.0 | 0.00 | 0.00 | 0.00 | 56 | 1017.0 |
| 20260905170055 | 94 | 360 | 2.0 | 5.0 | 0.00 | 0.00 | 0.00 | 57 | 1017.1 |
| 20260905165528 | 94 | 44 | 1.0 | 6.0 | 0.00 | 0.00 | 0.00 | 57 | 1017.1 |
| 20260905165028 | 94 | 32 | 1.0 | 6.0 | 0.00 | 0.00 | 0.00 | 56 | 1017.2 |
| 20260905164555 | 94 | 54 | 0.0 | 5.0 | 0.00 | 0.00 | 0.00 | 57 | 1017.3 |
| 20260905164029 | 94 | 67 | 1.0 | 3.0 | 0.00 | 0.00 | 0.00 | 58 | 1017.3 |
| 20260905163528 | 94 | 360 | 0.0 | 3.0 | 0.00 | 0.00 | 0.00 | 58 | 1017.4 |
| 20260905163048 | 93 | 46 | 1.0 | 3.0 | 0.00 | 0.00 | 0.00 | 59 | 1017.5 |
| 20260905162528 | 93 | 98 | 0.0 | 5.0 | 0.00 | 0.00 | 0.00 | 60 | 1017.4 |
| 20260905162028 | 92 | 0 | 1.0 | 5.0 | 0.00 | 0.00 | 0.00 | 60 | 1017.5 |
| 20260905161559 | 93 | 276 | 2.0 | 5.0 | 0.00 | 0.00 | 0.00 | 60 | 1017.5 |
| 20260905161029 | 92 | 76 | 1.0 | 3.0 | 0.00 | 0.00 | 0.00 | 61 | 1017.6 |
| 20260905160529 | 92 | 340 | 0.0 | 7.0 | 0.00 | 0.00 | 0.00 | 62 | 1017.6 |
| 20260905160100 | 91 | 69 | 1.0 | 7.0 | 0.00 | 0.00 | 0.00 | 62 | 1017.6 |
| 20260905155531 | 90 | 0 | 0.0 | 3.0 | 0.00 | 0.00 | 0.00 | 65 | 1017.6 |
| 20260905155028 | 89 | 44 | 1.0 | 4.0 | 0.00 | 0.00 | 0.00 | 66 | 1017.7 |
| 20260905154552 | 88 | 259 | 1.0 | 4.0 | 0.00 | 0.00 | 0.00 | 67 | 1017.7 |
| 20260905154030 | 88 | 311 | 2.0 | 4.0 | 0.00 | 0.00 | 0.00 | 68 | 1017.7 |
| 20260905153529 | 87 | 168 | 1.0 | 4.0 | 0.00 | 0.00 | 0.00 | 70 | 1017.7 |
| 20260905153047 | 87 | 165 | 1.0 | 4.0 | 0.00 | 0.00 | 0.00 | 71 | 1017.7 |
| 20260905152525 | 86 | 232 | 0.0 | 3.0 | 0.00 | 0.00 | 0.00 | 73 | 1017.8 |
| 20260905152025 | 85 | 250 | 1.0 | 3.0 | 0.00 | 0.00 | 0.00 | 73 | 1017.8 |
| 20260905151547 | 85 | 250 | 0.0 | 2.0 | 0.00 | 0.00 | 0.00 | 76 | 1017.8 |
| 20260905151031 | 84 | 0 | 0.0 | 3.0 | 0.00 | 0.00 | 0.00 | 75 | 1017.8 |
| 20260905150527 | 84 | 248 | 0.0 | 3.0 | 0.00 | 0.00 | 0.00 | 76 | 1017.8 |
| 20260905150053 | 83 | 0 | 0.0 | 3.0 | 0.00 | 0.00 | 0.00 | 78 | 1017.9 |
| 20260905145528 | 83 | 0 | 1.0 | 3.0 | 0.00 | 0.00 | 0.00 | 77 | 1018.0 |
| 20260905145026 | 83 | 0 | 1.0 | 3.0 | 0.00 | 0.00 | 0.00 | 78 | 1018.0 |
| 20260905144549 | 82 | 0 | 0.0 | 3.0 | 0.00 | 0.00 | 0.00 | 79 | 1018.0 |
| 20260905144027 | 82 | 0 | 0.0 | 0.0 | 0.00 | 0.00 | 0.00 | 79 | 1018.0 |
| 20260905143528 | 82 | 0 | 0.0 | 0.0 | 0.00 | 0.00 | 0.00 | 80 | 1018.0 |
| 20260905143047 | 81 | 0 | 0.0 | 0.0 | 0.00 | 0.00 | 0.00 | 81 | 1018.0 |
| 20260905142527 | 81 | 0 | 0.0 | 1.0 | 0.00 | 0.00 | 0.00 | 81 | 1017.9 |
| 20260905142028 | 80 | 0 | 0.0 | 1.0 | 0.00 | 0.00 | 0.00 | 83 | 1018.0 |
| 20260905141546 | 80 | 0 | 0.0 | 2.0 | 0.00 | 0.00 | 0.00 | 84 | 1017.9 |
| 20260905141029 | 80 | 0 | 0.0 | 2.0 | 0.00 | 0.00 | 0.00 | 85 | 1018.0 |
| 20260905140531 | 79 | 0 | 0.0 | 1.0 | 0.00 | 0.00 | 0.00 | 86 | 1018.0 |
| 20260905135527 | 78 | 0 | 0.0 | 0.0 | 0.00 | 0.00 | 0.00 | 87 | 1018.0 |
| 20260905135026 | 78 | 0 | 0.0 | 0.0 | 0.00 | 0.00 | 0.00 | 88 | 1017.9 |
| 20260905134557 | 78 | 0 | 0.0 | 0.0 | 0.00 | 0.00 | 0.00 | 88 | 1017.9 |
| 20260905134029 | 77 | 0 | 0.0 | 0.0 | 0.00 | 0.00 | 0.00 | 89 | 1017.9 |
| 20260905133527 | 77 | 0 | 0.0 | 0.0 | 0.00 | 0.00 | 0.00 | 90 | 1018.0 |
| 20260905133058 | 77 | 0 | 0.0 | 0.0 | 0.00 | 0.00 | 0.00 | 90 | 1018.0 |
| 20260905132525 | 76 | 0 | 0.0 | 0.0 | 0.00 | 0.00 | 0.00 | 91 | 1018.0 |
| 20260905132028 | 76 | 0 | 0.0 | 0.0 | 0.00 | 0.00 | 0.00 | 91 | 1018.0 |
| 20260905131552 | 75 | 0 | 0.0 | 0.0 | 0.00 | 0.00 | 0.00 | 92 | 1018.1 |
| 20260905131027 | 75 | 0 | 0.0 | 0.0 | 0.00 | 0.00 | 0.00 | 93 | 1018.0 |
| 20260905130529 | 75 | 0 | 0.0 | 0.0 | 0.00 | 0.00 | 0.00 | 94 | 1018.2 |
| 20260905130055 | 74 | 0 | 0.0 | 0.0 | 0.00 | 0.00 | 0.00 | 94 | 1018.2 |
| 20260905125527 | 74 | 0 | 0.0 | 0.0 | 0.00 | 0.00 | 0.00 | 94 | 1018.2 |
| 20260905125027 | 73 | 0 | 0.0 | 0.0 | 0.00 | 0.00 | 0.00 | 95 | 1018.2 |
| 20260905124552 | 73 | 0 | 0.0 | 0.0 | 0.00 | 0.00 | 0.00 | 95 | 1018.3 |
| 20260905124025 | 73 | 0 | 0.0 | 0.0 | 0.00 | 0.00 | 0.00 | 96 | 1018.2 |
| 20260905123527 | 72 | 0 | 0.0 | 0.0 | 0.00 | 0.00 | 0.00 | 96 | 1018.2 |